Track STARLINK-2575 now! 10-day predictions STARLINK-2575 is classified as:
1 48396U 21038AV 22183.64644425 .00001840 00000-0 14240-3 0 9992 2 48396 53.0555 264.2566 0001480 63.8802 296.2339 15.06403692 65018